| time (UTC) | temp F | wind direction | speed MPH | gust MPH | rain 1hr in | rain 24hr in | rain mn in | humidity % | barometer mb |
| 20260504213515 | 64 | 259 | 2.0 | 9.0 | 0.00 | 0.00 | 0.00 | 76 | 1011.9 |
| 20260504213015 | 64 | 259 | 2.0 | 9.0 | 0.00 | 0.00 | 0.00 | 75 | 1011.9 |
| 20260504212515 | 64 | 254 | 2.0 | 6.0 | 0.00 | 0.00 | 0.00 | 77 | 1011.9 |
| 20260504212015 | 63 | 254 | 2.0 | 6.0 | 0.00 | 0.00 | 0.00 | 77 | 1011.9 |
| 20260504211515 | 63 | 214 | 2.0 | 5.0 | 0.00 | 0.00 | 0.00 | 77 | 1012.0 |
| 20260504210515 | 63 | 224 | 2.0 | 6.0 | 0.00 | 0.00 | 0.00 | 78 | 1012.1 |
| 20260504205015 | 63 | 224 | 2.0 | 6.0 | 0.00 | 0.00 | 0.00 | 79 | 1012.1 |
| 20260504204015 | 62 | 275 | 3.0 | 6.0 | 0.00 | 0.00 | 0.00 | 79 | 1012.2 |
| 20260504203016 | 62 | 236 | 3.0 | 6.0 | 0.00 | 0.00 | 0.00 | 80 | 1012.2 |
| 20260504202515 | 62 | 236 | 3.0 | 6.0 | 0.00 | 0.00 | 0.00 | 81 | 1012.2 |
| 20260504202015 | 62 | 236 | 2.0 | 9.0 | 0.00 | 0.00 | 0.00 | 81 | 1012.2 |
| 20260504201515 | 61 | 236 | 2.0 | 9.0 | 0.00 | 0.00 | 0.00 | 82 | 1012.3 |
| 20260504195515 | 61 | 253 | 2.0 | 6.0 | 0.00 | 0.00 | 0.00 | 82 | 1012.5 |
| 20260504195015 | 61 | 245 | 2.0 | 6.0 | 0.00 | 0.00 | 0.00 | 81 | 1012.5 |
| 20260504194016 | 61 | 0 | 0.0 | 0.0 | 0.00 | 0.00 | 0.00 | 82 | 1012.4 |
| 20260504193515 | 61 | 0 | 0.0 | 0.0 | 0.00 | 0.00 | 0.00 | 82 | 1012.3 |
| 20260504192515 | 61 | 0 | 0.0 | 0.0 | 0.00 | 0.00 | 0.00 | 83 | 1012.3 |
| 20260504192016 | 61 | 0 | 0.0 | 0.0 | 0.00 | 0.00 | 0.00 | 82 | 1012.3 |
| 20260504191516 | 61 | 0 | 0.0 | 0.0 | 0.00 | 0.00 | 0.00 | 83 | 1012.3 |
| 20260504191015 | 60 | 0 | 0.0 | 0.0 | 0.00 | 0.00 | 0.00 | 83 | 1012.3 |
| 20260504184015 | 60 | 0 | 0.0 | 0.0 | 0.00 | 0.00 | 0.00 | 84 | 1012.4 |
| 20260504183546 | 60 | 0 | 0.0 | 0.0 | 0.00 | 0.00 | 0.00 | 84 | 1012.2 |
| 20260504183515 | 60 | 0 | 0.0 | 0.0 | 0.00 | 0.00 | 0.00 | 84 | 1012.2 |
| 20260504183015 | 60 | 0 | 0.0 | 0.0 | 0.00 | 0.00 | 0.00 | 84 | 1012.2 |
| 20260504182015 | 60 | 0 | 0.0 | 0.0 | 0.00 | 0.00 | 0.00 | 84 | 1012.2 |
| 20260504181515 | 59 | 0 | 0.0 | 0.0 | 0.00 | 0.00 | 0.00 | 84 | 1012.2 |
| 20260504181015 | 59 | 0 | 0.0 | 0.0 | 0.00 | 0.00 | 0.00 | 84 | 1012.1 |
| 20260504180015 | 59 | 0 | 0.0 | 0.0 | 0.00 | 0.00 | 0.00 | 85 | 1012.0 |
| 20260504175015 | 59 | 0 | 0.0 | 0.0 | 0.00 | 0.00 | 0.00 | 86 | 1011.9 |
| 20260504174515 | 59 | 0 | 0.0 | 0.0 | 0.00 | 0.00 | 0.00 | 86 | 1011.9 |
| 20260504174015 | 59 | 0 | 0.0 | 0.0 | 0.00 | 0.00 | 0.00 | 86 | 1011.9 |
| 20260504173515 | 59 | 0 | 0.0 | 0.0 | 0.00 | 0.00 | 0.00 | 87 | 1011.9 |
| 20260504171515 | 58 | 0 | 0.0 | 0.0 | 0.00 | 0.00 | 0.00 | 87 | 1011.9 |
| 20260504171015 | 58 | 0 | 0.0 | 0.0 | 0.00 | 0.00 | 0.00 | 87 | 1011.9 |
| 20260504170515 | 58 | 0 | 0.0 | 0.0 | 0.00 | 0.00 | 0.00 | 87 | 1011.9 |
| 20260504151017 | 56 | 0 | 0.0 | 0.0 | 0.00 | 0.00 | 0.00 | 91 | 1011.6 |
| 20260504150515 | 56 | 0 | 0.0 | 0.0 | 0.00 | 0.00 | 0.00 | 91 | 1011.5 |
| 20260504141015 | 55 | 0 | 0.0 | 0.0 | 0.00 | 0.00 | 0.00 | 92 | 1011.1 |
| 20260504140516 | 55 | 0 | 0.0 | 0.0 | 0.00 | 0.00 | 0.00 | 92 | 1011.1 |
| 20260504130515 | 55 | 0 | 0.0 | 0.0 | 0.00 | 0.00 | 0.00 | 92 | 1010.6 |
| 20260504110515 | 55 | 0 | 0.0 | 0.0 | 0.00 | 0.00 | 0.00 | 92 | 1010.2 |
| 20260504100514 | 55 | 0 | 0.0 | 0.0 | 0.00 | 0.00 | 0.00 | 91 | 1010.1 |
| 20260504081514 | 55 | 0 | 0.0 | 0.0 | 0.00 | 0.00 | 0.00 | 92 | 1009.7 |
| 20260504080514 | 55 | 0 | 0.0 | 0.0 | 0.00 | 0.00 | 0.00 | 92 | 1009.7 |
| 20260504050514 | 55 | 0 | 0.0 | 0.0 | 0.00 | 0.00 | 0.00 | 90 | 1008.2 |
| 20260504050016 | 55 | 0 | 0.0 | 0.0 | 0.00 | 0.00 | 0.00 | 90 | 1008.2 |
| 20260504045514 | 55 | 0 | 0.0 | 0.0 | 0.00 | 0.00 | 0.00 | 89 | 1008.1 |
| 20260504045014 | 55 | 0 | 0.0 | 0.0 | 0.00 | 0.00 | 0.00 | 89 | 1008.0 |
| 20260504044517 | 56 | 0 | 0.0 | 0.0 | 0.00 | 0.00 | 0.00 | 89 | 1008.0 |
| 20260504044015 | 56 | 0 | 0.0 | 0.0 | 0.00 | 0.00 | 0.00 | 88 | 1008.0 |
| 20260504043514 | 56 | 0 | 0.0 | 0.0 | 0.00 | 0.00 | 0.00 | 88 | 1007.9 |
| 20260504042514 | 56 | 0 | 0.0 | 0.0 | 0.00 | 0.00 | 0.00 | 88 | 1007.6 |
| 20260504042014 | 56 | 0 | 0.0 | 0.0 | 0.00 | 0.00 | 0.00 | 87 | 1007.6 |
| 20260504041514 | 57 | 0 | 0.0 | 0.0 | 0.00 | 0.00 | 0.00 | 87 | 1007.4 |
| 20260504041015 | 57 | 0 | 0.0 | 0.0 | 0.00 | 0.00 | 0.00 | 87 | 1007.4 |
| 20260504040514 | 57 | 0 | 0.0 | 0.0 | 0.00 | 0.00 | 0.00 | 86 | 1007.3 |
| 20260504040015 | 57 | 0 | 0.0 | 0.0 | 0.00 | 0.00 | 0.00 | 86 | 1007.2 |
| 20260504035514 | 57 | 0 | 0.0 | 0.0 | 0.00 | 0.00 | 0.00 | 86 | 1007.1 |
| 20260504035014 | 57 | 0 | 0.0 | 0.0 | 0.00 | 0.00 | 0.00 | 86 | 1007.0 |
| 20260504034514 | 58 | 0 | 0.0 | 0.0 | 0.00 | 0.00 | 0.00 | 86 | 1007.0 |
| 20260504034014 | 58 | 0 | 0.0 | 0.0 | 0.00 | 0.00 | 0.00 | 85 | 1006.8 |
| 20260504033515 | 58 | 0 | 0.0 | 0.0 | 0.00 | 0.00 | 0.00 | 85 | 1006.8 |
| 20260504033014 | 58 | 242 | 0.0 | 1.0 | 0.00 | 0.00 | 0.00 | 84 | 1006.7 |
| 20260504032514 | 59 | 219 | 0.0 | 1.0 | 0.00 | 0.00 | 0.00 | 84 | 1006.6 |
| 20260504032014 | 59 | 232 | 0.0 | 1.0 | 0.00 | 0.00 | 0.00 | 84 | 1006.5 |
| 20260504031014 | 60 | 0 | 0.0 | 0.0 | 0.00 | 0.00 | 0.00 | 83 | 1006.3 |
| 20260504030514 | 60 | 0 | 0.0 | 0.0 | 0.00 | 0.00 | 0.00 | 83 | 1006.2 |
| 20260504030015 | 60 | 0 | 0.0 | 0.0 | 0.00 | 0.00 | 0.00 | 83 | 1006.2 |
| 20260504024514 | 61 | 239 | 0.0 | 3.0 | 0.00 | 0.00 | 0.00 | 82 | 1005.9 |
| 20260504024015 | 61 | 239 | 0.0 | 3.0 | 0.00 | 0.00 | 0.00 | 82 | 1005.9 |
| 20260504023514 | 62 | 236 | 0.0 | 3.0 | 0.00 | 0.00 | 0.00 | 81 | 1005.9 |
| 20260504023014 | 62 | 236 | 1.0 | 3.0 | 0.00 | 0.00 | 0.00 | 81 | 1005.9 |
| 20260504022515 | 62 | 226 | 0.0 | 3.0 | 0.00 | 0.00 | 0.00 | 80 | 1005.8 |
| 20260504022014 | 62 | 191 | 0.0 | 3.0 | 0.00 | 0.00 | 0.00 | 80 | 1005.8 |
| 20260504021514 | 62 | 228 | 0.0 | 3.0 | 0.00 | 0.00 | 0.00 | 80 | 1005.7 |
| 20260504021014 | 62 | 215 | 0.0 | 1.0 | 0.00 | 0.00 | 0.00 | 79 | 1005.7 |
| 20260504020515 | 63 | 0 | 0.0 | 0.0 | 0.00 | 0.00 | 0.00 | 79 | 1005.6 |
| 20260504020015 | 63 | 0 | 0.0 | 0.0 | 0.00 | 0.00 | 0.00 | 79 | 1005.7 |
| 20260504015514 | 63 | 0 | 0.0 | 0.0 | 0.00 | 0.00 | 0.00 | 79 | 1005.6 |
| 20260504015014 | 63 | 0 | 0.0 | 3.0 | 0.00 | 0.00 | 0.00 | 79 | 1005.6 |
| 20260504014514 | 63 | 250 | 0.0 | 3.0 | 0.00 | 0.00 | 0.00 | 79 | 1005.6 |
| 20260504014014 | 63 | 250 | 0.0 | 3.0 | 0.00 | 0.00 | 0.00 | 78 | 1005.6 |
| 20260504013514 | 63 | 253 | 0.0 | 2.0 | 0.00 | 0.00 | 0.00 | 78 | 1005.6 |
| 20260504013014 | 63 | 219 | 1.0 | 4.0 | 0.00 | 0.00 | 0.00 | 77 | 1005.6 |
| 20260504012514 | 63 | 219 | 0.0 | 4.0 | 0.00 | 0.00 | 0.00 | 77 | 1005.6 |
| 20260504012014 | 63 | 222 | 1.0 | 4.0 | 0.00 | 0.00 | 0.00 | 77 | 1005.6 |
| 20260504011514 | 64 | 222 | 2.0 | 4.0 | 0.00 | 0.00 | 0.00 | 76 | 1005.6 |
| 20260504011014 | 64 | 212 | 1.0 | 3.0 | 0.00 | 0.00 | 0.00 | 74 | 1005.6 |
| 20260504010514 | 65 | 225 | 0.0 | 3.0 | 0.00 | 0.00 | 0.00 | 73 | 1005.6 |
| 20260504005514 | 66 | 212 | 0.0 | 6.0 | 0.00 | 0.00 | 0.00 | 70 | 1005.5 |
| 20260504005014 | 67 | 179 | 0.0 | 6.0 | 0.00 | 0.00 | 0.00 | 70 | 1005.6 |
| 20260504004514 | 67 | 193 | 0.0 | 4.0 | 0.00 | 0.00 | 0.00 | 69 | 1005.5 |
| 20260504004014 | 68 | 172 | 0.0 | 4.0 | 0.00 | 0.00 | 0.00 | 67 | 1005.5 |
| 20260504003516 | 68 | 190 | 1.0 | 4.0 | 0.00 | 0.00 | 0.00 | 66 | 1005.5 |
| 20260504003014 | 69 | 191 | 1.0 | 3.0 | 0.00 | 0.00 | 0.00 | 66 | 1005.5 |
| 20260504002514 | 70 | 252 | 1.0 | 3.0 | 0.00 | 0.00 | 0.00 | 65 | 1005.5 |
| 20260504002014 | 71 | 203 | 0.0 | 3.0 | 0.00 | 0.00 | 0.00 | 64 | 1005.5 |
| 20260504001515 | 71 | 0 | 0.0 | 1.0 | 0.00 | 0.00 | 0.00 | 63 | 1005.4 |
| 20260504001014 | 72 | 0 | 0.0 | 3.0 | 0.00 | 0.00 | 0.00 | 62 | 1005.4 |
| 20260504000514 | 72 | 194 | 0.0 | 3.0 | 0.00 | 0.00 | 0.00 | 62 | 1005.4 |
| 20260504000014 | 73 | 138 | 0.0 | 3.0 | 0.00 | 0.00 | 0.00 | 60 | 1005.4 |
| 20260503235514 | 73 | 242 | 0.0 | 3.0 | 0.00 | 0.00 | 0.00 | 58 | 1005.5 |
| 20260503235014 | 74 | 242 | 0.0 | 3.0 | 0.00 | 0.00 | 0.00 | 58 | 1005.5 |
| 20260503234514 | 75 | 193 | 1.0 | 1.0 | 0.00 | 0.00 | 0.00 | 56 | 1005.5 |
| 20260503234014 | 75 | 193 | 1.0 | 3.0 | 0.00 | 0.00 | 0.00 | 54 | 1005.6 |
| 20260503233514 | 76 | 225 | 0.0 | 3.0 | 0.00 | 0.00 | 0.00 | 54 | 1005.6 |
| 20260503233014 | 77 | 225 | 2.0 | 3.0 | 0.00 | 0.00 | 0.00 | 53 | 1005.6 |
| 20260503232514 | 77 | 196 | 1.0 | 4.0 | 0.00 | 0.00 | 0.00 | 51 | 1005.7 |
| 20260503232014 | 77 | 196 | 1.0 | 4.0 | 0.00 | 0.00 | 0.00 | 53 | 1005.7 |
| 20260503231514 | 76 | 215 | 0.0 | 4.0 | 0.00 | 0.00 | 0.00 | 54 | 1005.7 |
| 20260503231014 | 76 | 212 | 0.0 | 3.0 | 0.00 | 0.00 | 0.00 | 54 | 1005.8 |
| 20260503230515 | 76 | 208 | 1.0 | 3.0 | 0.00 | 0.00 | 0.00 | 51 | 1005.9 |
| 20260503230014 | 76 | 228 | 0.0 | 3.0 | 0.00 | 0.00 | 0.00 | 53 | 1006.0 |
| 20260503225514 | 76 | 224 | 0.0 | 3.0 | 0.00 | 0.00 | 0.00 | 55 | 1006.2 |
| 20260503225014 | 76 | 229 | 2.0 | 4.0 | 0.00 | 0.00 | 0.00 | 57 | 1006.3 |
| 20260503224514 | 75 | 236 | 2.0 | 4.0 | 0.00 | 0.00 | 0.00 | 53 | 1006.4 |
| 20260503224019 | 76 | 242 | 0.0 | 4.0 | 0.00 | 0.00 | 0.00 | 55 | 1006.4 |
| 20260503224013 | 76 | 242 | 0.0 | 4.0 | 0.00 | 0.00 | 0.00 | 55 | 1006.4 |
| 20260503223514 | 76 | 221 | 0.0 | 3.0 | 0.00 | 0.00 | 0.00 | 53 | 1006.5 |
| 20260503223014 | 75 | 208 | 0.0 | 2.0 | 0.00 | 0.00 | 0.00 | 56 | 1006.6 |
| 20260503222516 | 75 | 221 | 0.0 | 4.0 | 0.00 | 0.00 | 0.00 | 56 | 1006.7 |
| 20260503222013 | 75 | 222 | 1.0 | 4.0 | 0.00 | 0.00 | 0.00 | 56 | 1006.7 |
| 20260503221513 | 75 | 205 | 2.0 | 4.0 | 0.00 | 0.00 | 0.00 | 56 | 1006.8 |
| 20260503221014 | 75 | 224 | 2.0 | 5.0 | 0.00 | 0.00 | 0.00 | 54 | 1006.9 |
| 20260503220514 | 75 | 224 | 2.0 | 5.0 | 0.00 | 0.00 | 0.00 | 58 | 1007.0 |
| 20260503220014 | 76 | 215 | 2.0 | 5.0 | 0.00 | 0.00 | 0.00 | 56 | 1007.1 |
| 20260503215514 | 76 | 224 | 1.0 | 5.0 | 0.00 | 0.00 | 0.00 | 55 | 1007.1 |
| 20260503214513 | 75 | 175 | 3.0 | 5.0 | 0.00 | 0.00 | 0.00 | 57 | 1007.1 |
| 20260503214013 | 75 | 225 | 2.0 | 5.0 | 0.00 | 0.00 | 0.00 | 55 | 1007.2 |